RH
83 83 82 81 82 79 82 84 85 83 83 82 83 85 86 86 87 87 86 85 82 79 81 78 76 75 38 21 18 14 45 44 30 29 21 21 20 22 23 20 21 23 20 22 23 27 29
80 81 81 80 78 80 83 85 86 86 85 85 85 85 87 88 88 88 88 86 84 82 82 78 76 72 24 19 15 15 17 21 20 20 21 20 19 19 20 20 21 20 22 22 25 26 27
82 78 80 79 77 83 84 88 89 89 87 86 86 87 89 89 89 89 87 86 84 86 82 74 74 28 22 18 14 16 18 19 20 20 21 22 21 21 21 24 23 22 23 20 22 23 26
80 79 80 78 80 82 86 86 87 88 91 92 91 89 88 88 90 90 87 85 87 86 81 75 72 24 22 19 16 18 18 21 20 18 20 22 24 25 25 23 24 24 25 24 23 29 31
78 78 78 78 79 81 84 85 86 87 88 89 91 90 90 90 91 92 91 88 87 84 77 71 31 24 21 30 19 17 17 20 20 21 20 22 26 27 27 23 22 26 19 23 21 27 30
76 76 77 79 79 82 84 85 86 87 88 89 88 89 90 92 93 93 79 81 72 63 44 25 18 21 20 20 21 22 18 20 22 27 30 26 28 24 25 22 22 21 22 20 21 24 32
74 76 75 75 81 82 83 84 86 86 84 86 88 90 91 91 93 91 53 34 29 34 27 23 21 19 22 23 22 24 21 22 23 24 27 30 30 27 19 20 18 22 21 22 20 24 27
72 73 73 77 82 81 83 84 85 84 86 89 89 90 90 92 93 78 42 32 44 45 33 30 27 24 24 22 26 27 21 23 26 26 32 32 32 23 28 27 27 26 26 26 24 27 29
71 71 72 81 80 81 83 84 83 83 84 87 87 88 90 93 90 52 43 49 52 49 41 33 32 28 26 24 26 28 24 26 27 30 33 27 25 31 29 30 30 28 27 25 27 31 31
68 80 80 80 80 81 82 82 81 82 85 85 85 87 90 96 56 47 44 52 53 51 39 32 34 30 28 27 30 28 26 26 29 29 31 30 29 30 31 28 26 30 25 29 31 33 32
84 84 83 81 83 81 79 80 80 80 84 84 83 86 90 90 50 43 53 55 58 49 56 32 35 29 32 31 34 34 27 26 30 30 32 31 36 37 36 28 26 28 32 33 36 35 42
84 83 82 81 80 80 78 78 78 79 82 84 82 86 91 66 55 58 61 63 57 39 76 34 38 39 36 36 36 35 30 28 31 32 33 30 34 32 28 33 29 37 37 44 47 42 54
81 80 78 77 76 75 76 75 75 75 79 81 82 86 85 68 52 62 66 54 34 36 27 30 40 42 38 37 39 38 39 37 36 42 41 36 36 34 32 34 34 37 37 47 50 67 47
77 76 74 74 73 73 73 73 73 73 78 80 83 90 76 70 62 67 58 44 35 24 27 36 40 43 40 38 38 43 43 38 36 35 36 39 49 41 34 31 35 39 35 43 41 33 22
74 73 72 71 70 70 70 71 71 72 77 79 85 63 62 69 69 63 47 41 22 29 32 43 39 44 41 43 40 42 42 36 32 35 38 38 41 43 37 34 32 41 46 35 40 36 46
69 69 69 68 68 69 70 71 71 72 76 78 86 72 61 69 67 55 49 53 39 40 45 39 38 36 34 35 42 42 37 34 40 36 30 30 39 40 39 35 38 39 34 46 46 48 39
66 66 67 69 70 70 71 71 72 71 75 73 77 59 62 68 61 52 56 51 49 43 46 43 40 38 34 34 39 32 27 33 35 38 37 36 40 36 40 43 38 47 44 44 44 37 38
68 69 71 69 70 69 70 70 71 71 74 64 80 45 65 63 57 63 58 54 62 50 44 48 46 44 43 39 40 37 35 28 32 39 42 35 39 44 35 30 38 34 30 29 43 40 42
68 68 68 68 69 69 70 70 70 71 70 75 62 74 62 65 75 68 65 63 59 60 57 52 49 50 49 60 69 50 46 42 38 39 38 37 44 51 41 42 51 46 38 36 34 55 70
60 60 59 59 65 66 67 68 68 69 67 74 74 70 59 66 78 79 95 83 83 71 76 71 80 76 94 85 62 75 61 53 68 48 66 52 56 63 58 42 41 63 50 46 48 81 60
61 61 60 60 58 62 64 65 66 66 67 75 78 85 80 75 50 50 43 59 71 92 64 66 78 92 92 86 95 94 96 92 69 72 65 67 99 73 65 55 53 60 67 62 66 60 75
60 60 60 60 59 60 63 63 63 64 66 60 84 81 68 53 52 44 44 55 70 61 56 47 76 38 34 60 61 85 96 63 77 60 59 62 98 99 98 85 80 88 76 76 75 77 81
60 60 60 59 59 57 56 57 60 62 65 81 76 71 78 62 64 54 64 62 52 60 45 48 42 46 52 51 47 42 44 42 39 40 38 54 97 99 96 68 81 97 92 82 79 78 87
64 64 63 60 60 61 58 60 60 58 68 78 83 87 74 66 65 60 64 67 69 64 69 53 40 51 41 37 41 36 35 33 30 36 55 71 87 97 96 81 98 92 86 88 86 88 88
70 75 73 70 63 58 59 61 59 55 57 78 84 79 77 72 57 54 66 60 60 53 60 52 52 43 44 54 56 51 34 36 50 69 63 64 92 95 97 91 83 90 91 89 91 92 92
63 67 68 67 72 73 59 57 57 56 59 80 76 72 78 77 63 64 62 69 67 69 59 53 44 48 52 57 51 87 58 49 56 51 29 34 42 72 77 85 92 92 84 88 92 89 90
66 67 64 65 67 69 73 68 62 61 58 74 84 79 83 84 57 55 60 63 58 61 66 55 63 56 55 61 71 78 62 58 67 59 60 56 76 76 72 77 94 88 87 82 94 94 90
64 67 73 76 73 70 69 70 71 64 62 70 77 77 96 94 67 62 58 62 64 65 75 59 64 63 58 68 72 64 61 60 69 76 88 84 96 85 84 89 88 86 72 84 91 86 93
65 70 71 72 73 77 71 70 70 70 63 57 82 73 80 99 81 71 64 56 55 53 67 74 63 70 63 72 76 86 79 84 82 88 60 87 93 91 92 89 88 90 90 90 91 92 90
Wind_Speed
19 19 19 19 19 20 21 20 20 19 18 18 17 16 14 12 10 9 9 9 7 6 6 4 4 4 2 3 5 5 5 6 6 7 5 6 6 4 5 4 4 8 5 4 6 4 6
19 19 19 19 19 20 21 21 21 20 20 19 19 18 16 13 10 9 9 9 8 8 6 4 3 3 2 5 4 5 5 6 4 4 4 5 4 3 2 3 7 1 6 8 5 7 6
18 18 18 19 19 20 21 21 21 20 21 21 20 19 17 15 12 10 8 8 7 7 5 3 1 0 2 8 2 4 5 3 3 3 4 2 3 5 3 3 1 2 7 7 12 7 4
17 18 19 19 20 20 21 22 22 23 22 22 22 22 20 18 15 10 9 8 7 6 5 3 1 1 6 2 2 3 5 4 3 3 2 4 3 3 2 2 3 4 4 6 5 8 3
18 18 19 20 21 22 22 22 23 23 23 23 23 23 23 21 16 11 9 8 7 5 4 3 3 3 6 3 3 4 3 4 5 4 4 4 1 1 4 5 5 6 8 8 3 9 3
18 19 19 20 21 22 22 23 23 24 24 25 25 25 24 21 17 12 9 3 4 6 4 3 1 3 4 3 4 4 2 6 3 6 4 3 3 5 5 8 9 5 6 6 8 5 7
17 18 20 21 21 21 23 23 23 24 24 23 24 23 22 22 17 12 4 2 3 4 4 8 5 3 3 3 3 3 3 6 4 3 7 3 7 13 15 14 10 5 9 14 7 3 5
17 18 18 20 21 22 23 24 24 24 24 24 24 24 23 21 18 8 2 3 3 3 9 7 7 5 3 3 3 5 6 8 7 9 6 5 13 12 2 4 9 9 11 15 8 4 6
16 15 18 20 21 23 24 24 25 25 26 25 25 24 25 23 15 2 4 3 1 1 6 3 4 4 3 7 5 7 11 5 7 8 11 13 1 5 6 6 9 11 15 11 9 2 8
14 14 17 19 21 23 24 25 25 25 25 25 25 24 24 27 1 3 2 1 1 2 5 3 3 2 3 3 4 2 6 2 5 8 7 9 2 7 6 9 11 13 9 7 5 4 10
14 16 17 19 21 22 24 25 25 26 26 26 26 24 22 10 4 1 3 3 2 3 6 4 3 1 1 4 3 4 0 3 6 7 6 3 7 7 9 9 13 3 2 4 2 6 6
17 18 19 19 20 22 24 24 26 27 27 27 27 24 20 1 1 2 4 3 3 4 9 1 3 3 3 3 2 3 2 0 1 3 5 9 1 4 4 3 5 9 4 2 1 3 10
18 18 19 19 20 22 23 25 26 27 28 28 28 25 8 1 3 3 3 3 4 6 2 3 3 4 3 5 5 7 6 7 7 5 7 4 7 3 3 5 3 7 6 5 6 6 8
17 18 19 20 22 23 24 25 26 28 29 30 29 19 2 1 1 3 2 3 9 2 6 2 1 2 5 6 4 5 4 8 11 5 6 8 9 12 12 13 7 14 8 8 10 8 10
17 19 20 21 23 24 25 26 28 28 28 30 24 4 2 1 1 1 3 6 5 4 3 3 2 5 5 2 4 6 8 8 6 17 11 7 8 3 6 4 5 8 11 3 8 7 8
19 19 20 21 22 24 25 26 28 29 29 28 6 4 2 3 1 2 3 4 5 3 3 1 5 4 6 3 5 5 5 4 5 11 8 3 11 5 5 2 1 5 4 5 5 9 17
19 19 20 22 23 24 26 27 29 30 30 24 3 5 3 4 3 3 6 7 6 2 3 3 5 7 8 9 8 10 9 2 5 3 8 3 8 5 6 10 12 6 7 6 6 10 15
20 20 21 22 23 25 27 28 29 31 31 8 5 3 4 4 4 1 3 2 3 3 1 6 4 10 13 13 15 15 20 17 4 7 8 9 5 14 19 6 3 13 18 20 14 18 13
18 20 20 22 23 24 26 28 30 31 27 5 4 4 3 4 3 1 6 5 3 5 4 4 4 3 3 7 9 12 11 5 10 8 6 6 7 14 16 8 3 9 15 17 17 11 23
19 20 21 21 24 25 26 28 29 32 29 2 3 5 3 4 3 5 6 6 8 8 2 8 8 12 8 6 8 10 9 5 15 5 7 1 13 17 17 17 3 7 10 14 17 13 18
19 20 20 21 22 23 25 26 28 31 30 2 5 4 3 5 4 10 6 7 10 7 8 11 1 10 8 6 7 5 8 9 11 13 7 5 8 17 23 26 20 19 20 18 17 18 17
18 19 20 20 20 21 22 23 26 28 24 6 4 5 6 4 7 9 7 7 8 7 4 8 6 14 9 8 11 16 8 9 8 8 11 10 7 8 13 23 23 24 26 28 30 31 33
17 18 18 18 19 20 21 21 22 23 17 5 4 2 3 4 5 5 3 8 8 8 6 6 11 14 12 11 15 19 19 20 22 21 18 13 7 7 15 18 16 15 14 14 17 20 12
14 14 16 18 18 17 19 19 18 18 14 4 2 2 3 3 6 6 13 11 9 12 13 14 14 10 8 21 21 18 20 24 24 24 17 18 16 12 15 15 18 12 16 17 21 20 18
23 22 17 15 14 17 17 15 16 13 12 2 0 2 2 4 7 10 10 14 11 10 10 13 7 12 15 12 6 7 5 2 6 10 13 6 3 6 5 9 2 10 13 9 8 8 19
22 21 21 21 20 15 11 11 11 12 13 3 3 1 1 3 2 2 10 8 11 9 7 6 17 12 7 3 3 3 3 6 6 12 11 12 6 2 6 7 5 7 21 13 5 3 18
19 19 20 18 18 19 14 12 9 7 8 3 1 4 2 3 5 4 7 7 5 7 8 12 9 7 5 4 3 2 3 4 4 7 12 11 7 5 7 5 5 17 23 12 1 9 18
18 20 23 21 20 17 14 15 10 8 6 3 3 3 3 3 10 8 6 9 8 6 5 9 7 2 3 3 2 3 3 3 3 5 5 5 6 5 5 5 2 21 8 9 7 9 10
21 22 23 22 23 24 16 12 15 8 5 2 2 3 4 3 8 9 15 17 17 17 7 4 4 3 3 3 0 1 3 2 1 1 10 5 6 4 6 4 6 7 7 6 7 9 11
Wind_Direction
18 17 18 17 16 15 10 13 14 14 10 10 6 0 350 338 326 311 297 284 284 279 275 288 311 316 210 232 252 140 146 134 133 161 205 193 193 189 224 207 186 238 264 226 242 231 236
15 16 16 15 16 10 8 10 11 9 6 7 7 2 353 340 325 309 294 290 285 281 286 290 308 274 205 255 104 146 147 137 157 182 175 188 237 221 255 229 223 342 267 265 254 236 236
14 14 16 14 13 9 10 9 8 6 4 5 5 360 352 343 332 319 304 285 275 276 285 285 334 225 225 257 163 143 154 137 148 186 177 180 164 202 167 209 228 281 282 253 230 218 242
18 15 13 14 10 12 10 9 7 5 2 0 359 358 352 347 340 325 305 289 267 256 266 232 174 189 258 85 137 171 145 119 111 89 98 123 150 125 256 115 203 245 239 259 130 173 169
19 18 15 13 12 11 9 7 6 3 1 358 357 354 351 348 340 327 301 277 255 235 200 154 185 229 259 125 203 160 191 163 128 108 82 112 140 133 166 227 242 207 268 230 233 201 163
18 18 18 15 12 10 8 6 6 3 360 357 354 349 347 343 337 330 321 243 112 140 126 150 101 254 192 210 152 144 112 147 147 141 141 185 166 219 200 206 247 230 232 234 252 167 218
18 16 17 14 12 11 9 7 4 2 357 350 347 345 343 343 337 329 311 187 206 186 215 216 188 241 137 110 154 159 147 142 142 206 210 180 219 219 227 223 274 285 268 265 258 168 251
17 16 19 16 12 12 9 6 2 357 352 349 347 344 342 342 334 325 296 52 41 359 292 235 238 270 243 184 171 179 171 191 193 214 156 193 241 246 193 218 228 237 259 262 271 194 224
18 16 21 21 13 10 7 4 0 354 351 347 345 343 340 340 327 28 48 55 313 263 261 264 189 205 203 180 223 187 182 176 212 208 206 231 229 121 185 186 208 228 237 257 268 241 234
18 30 30 24 12 8 5 1 356 352 348 345 343 342 342 331 73 345 55 348 278 263 276 203 197 166 135 158 226 102 195 211 202 236 206 245 168 206 203 230 210 254 228 235 237 259 278
48 37 31 22 11 7 4 359 355 352 347 343 341 341 340 344 318 347 348 293 262 238 297 96 146 63 106 216 109 164 93 170 227 188 191 217 180 190 214 230 190 270 106 179 209 251 301
38 34 27 20 12 7 3 360 356 351 346 341 337 335 336 177 243 19 307 256 231 230 247 187 127 173 180 201 188 116 175 151 8 215 232 262 25 225 236 110 185 136 119 109 149 240 254
38 33 28 21 15 8 4 360 356 352 346 339 333 331 325 294 348 339 299 251 248 226 48 182 212 190 222 200 202 196 179 188 209 203 221 197 217 184 185 174 137 195 182 258 233 205 256
40 33 26 21 15 11 6 0 356 352 346 339 329 323 324 328 349 322 255 222 236 214 252 31 129 167 225 172 214 184 199 234 224 230 273 266 268 186 176 219 196 193 221 217 253 247 281
42 35 27 22 16 11 8 3 357 352 345 339 322 325 266 82 7 242 230 221 246 227 354 323 238 231 220 228 247 208 223 242 238 196 218 220 247 143 199 166 191 160 208 275 266 248 266
36 32 28 23 17 12 9 5 359 353 345 339 322 305 272 4 333 210 216 257 264 233 322 253 269 223 270 248 225 219 221 163 234 206 237 257 276 181 131 155 179 226 133 172 204 256 252
37 31 24 21 16 12 8 4 360 355 346 334 291 299 76 339 233 208 240 238 258 264 230 253 278 278 268 282 256 259 262 227 222 198 215 239 233 221 152 196 204 176 213 227 297 249 259
30 28 24 18 13 10 7 3 360 358 350 19 336 289 7 306 264 279 240 236 329 292 244 283 248 257 263 277 272 256 256 246 175 169 201 217 256 254 246 219 294 272 242 231 233 237 238
29 23 18 14 10 8 6 3 360 359 2 329 356 303 354 313 286 307 343 315 293 307 337 323 285 254 14 302 295 255 271 298 268 228 255 184 229 267 258 215 182 229 228 241 247 279 250
18 16 15 13 10 8 7 4 1 357 357 332 348 348 354 34 53 26 7 310 343 354 358 347 340 40 352 320 255 271 273 353 339 274 10 27 265 248 258 266 299 237 235 231 233 246 258
18 14 12 11 11 8 6 6 4 358 351 307 7 53 26 337 324 334 310 262 299 339 356 20 129 76 17 309 321 315 2 340 321 314 330 314 251 257 261 270 277 269 266 263 249 249 250
17 12 10 10 11 11 8 8 8 7 356 69 18 359 353 302 313 332 352 18 342 347 301 310 295 319 300 250 266 291 293 311 281 304 330 319 279 280 263 257 260 261 268 272 266 269 265
14 10 10 10 8 7 9 9 12 14 19 52 19 8 324 334 346 326 33 353 314 339 299 264 326 312 299 325 312 289 268 263 254 257 268 261 262 269 268 280 278 256 351 347 54 30 334
0 5 9 11 10 3 8 11 13 16 28 46 17 290 354 316 332 331 323 319 313 319 284 290 309 282 343 318 301 273 259 256 254 252 254 270 280 257 266 273 255 94 42 54 84 44 21
9 7 357 350 359 7 6 7 6 14 8 9 332 14 357 292 305 301 325 316 314 319 296 296 317 313 314 302 288 316 312 331 46 81 74 344 341 301 1 323 103 50 27 359 3 46 12
7 3 2 349 356 334 357 356 358 354 351 19 316 319 236 307 234 268 304 302 324 325 310 292 314 307 297 269 274 294 328 337 350 341 345 1 36 9 337 291 309 19 328 314 234 165 3
1 353 357 351 348 340 334 321 338 341 340 354 291 13 292 268 269 253 294 297 284 279 298 307 331 319 320 338 306 312 321 340 355 330 335 343 359 344 315 266 94 340 324 315 7 338 349
354 353 356 352 345 333 318 329 293 304 308 315 267 199 223 247 279 241 249 260 271 258 281 322 306 197 291 349 312 353 321 1 284 47 4 41 335 16 312 337 278 359 359 48 317 328 340
352 356 0 4 2 359 341 320 325 273 307 322 271 199 218 233 274 294 270 263 253 256 270 232 282 308 305 297 129 278 274 260 255 82 25 58 354 358 9 60 332 5 49 11 350 338 343